• In Uzbekistan
  • List of Countries
  • For 7 days
  • Water Temperature
  • Satellite Maps
  • Weather Map
  • Weather Widgets
  • user-avatar
    Login

    Hourly Weather Annaba

    Today, 20 November, Monday

    Time Temperature Precipitation Wind Pressure Humidity
    00:00 +12°C° 0 mm 5 mps 764 mmHg 77%
    01:00 +12°C° 0 mm 5 mps 764 mmHg 76%
    02:00 +12°C° 0 mm 5 mps 764 mmHg 74%
    03:00 +12°C° 0 mm 5 mps 764 mmHg 71%
    04:00 +12°C° 0 mm 5 mps 764 mmHg 69%
    05:00 +12°C° 0 mm 5 mps 765 mmHg 67%
    06:00 +12°C° 0 mm 4 mps 765 mmHg 66%
    07:00 +12°C° 0 mm 4 mps 765 mmHg 64%
    08:00 +13°C° 0 mm 4 mps 765 mmHg 62%
    09:00 +15°C° 0 mm 4 mps 765 mmHg 59%
    10:00 +17°C° 0 mm 4 mps 765 mmHg 57%
    11:00 +18°C° 0 mm 4 mps 765 mmHg 58%
    12:00 +19°C° 0 mm 4 mps 765 mmHg 58%
    13:00 +20°C° 0 mm 4 mps 765 mmHg 58%
    14:00 +19°C° 0 mm 4 mps 765 mmHg 59%
    15:00 +19°C° 0 mm 4 mps 765 mmHg 60%
    16:00 +19°C° 0 mm 3 mps 765 mmHg 62%
    17:00 +18°C° 0 mm 3 mps 765 mmHg 67%
    18:00 +16°C° 0 mm 2 mps 765 mmHg 73%
    19:00 +15°C° 0 mm 2 mps 765 mmHg 79%
    20:00 +15°C° 0 mm 2 mps 765 mmHg 80%
    21:00 +15°C° 0 mm 2 mps 766 mmHg 80%
    22:00 +14°C° 0 mm 2 mps 766 mmHg 80%
    23:00 +14°C° 0 mm 2 mps 766 mmHg 79%

    Tomorrow, 21 November, Tuesday

    Time Temperature Precipitation Wind Pressure Humidity
    00:00 +14°C° 0 mm 2 mps 766 mmHg 78%
    01:00 +14°C° 0 mm 2 mps 765 mmHg 76%
    02:00 +14°C° 0 mm 2 mps 765 mmHg 75%
    03:00 +14°C° 0 mm 2 mps 765 mmHg 73%
    04:00 +13°C° 0 mm 2 mps 765 mmHg 71%
    05:00 +13°C° 0 mm 2 mps 765 mmHg 68%
    06:00 +13°C° 0 mm 2 mps 765 mmHg 64%
    07:00 +13°C° 0 mm 2 mps 765 mmHg 61%
    08:00 +15°C° 0 mm 2 mps 765 mmHg 55%
    09:00 +16°C° 0 mm 2 mps 765 mmHg 48%
    10:00 +18°C° 0 mm 2 mps 765 mmHg 42%
    11:00 +20°C° 0 mm 1 mps 765 mmHg 39%
    12:00 +22°C° 0 mm 1 mps 764 mmHg 35%
    13:00 +23°C° 0 mm 1 mps 764 mmHg 32%
    14:00 +22°C° 0 mm 1 mps 764 mmHg 36%
    15:00 +22°C° 0 mm 1 mps 764 mmHg 39%
    16:00 +21°C° 0 mm 1 mps 763 mmHg 43%
    17:00 +20°C° 0 mm 1 mps 764 mmHg 49%
    18:00 +18°C° 0 mm 1 mps 764 mmHg 54%
    19:00 +15°C° 0 mm 1 mps 764 mmHg 60%
    20:00 +15°C° 0 mm 1 mps 764 mmHg 60%
    21:00 +15°C° 0 mm 1 mps 764 mmHg 60%
    22:00 +15°C° 0 mm 1 mps 764 mmHg 59%
    23:00 +14°C° 0 mm 1 mps 764 mmHg 57%

    Day after tomorrow, 22 November, Wednesday

    Time Temperature Precipitation Wind Pressure Humidity
    00:00 +14°C° 0 mm 2 mps 764 mmHg 55%
    01:00 +14°C° 0 mm 2 mps 764 mmHg 53%
    02:00 +14°C° 0 mm 2 mps 763 mmHg 51%
    03:00 +14°C° 0 mm 2 mps 763 mmHg 49%
    04:00 +14°C° 0 mm 2 mps 763 mmHg 47%
    05:00 +14°C° 0 mm 2 mps 763 mmHg 46%
    06:00 +13°C° 0 mm 2 mps 763 mmHg 44%
    07:00 +13°C° 0 mm 2 mps 763 mmHg 43%
    08:00 +15°C° 0 mm 2 mps 763 mmHg 40%
    09:00 +17°C° 0 mm 2 mps 763 mmHg 37%
    10:00 +20°C° 0 mm 1 mps 763 mmHg 35%
    11:00 +21°C° 0 mm 1 mps 763 mmHg 33%
    12:00 +22°C° 0 mm 1 mps 763 mmHg 31%
    13:00 +24°C° 0 mm 1 mps 762 mmHg 29%
    14:00 +23°C° 0 mm 2 mps 762 mmHg 33%
    15:00 +23°C° 0 mm 2 mps 762 mmHg 37%
    16:00 +23°C° 0 mm 2 mps 762 mmHg 41%
    17:00 +20°C° 0 mm 2 mps 762 mmHg 44%
    18:00 +18°C° 0 mm 2 mps 762 mmHg 47%
    19:00 +16°C° 0 mm 2 mps 762 mmHg 51%
    20:00 +16°C° 0 mm 2 mps 763 mmHg 50%
    21:00 +16°C° 0 mm 2 mps 763 mmHg 49%
    22:00 +16°C° 0 mm 1 mps 763 mmHg 48%
    23:00 +16°C° 0 mm 1 mps 763 mmHg 46%

    23 November, Thursday

    Time Temperature Precipitation Wind Pressure Humidity
    00:00 +15°C° 0 mm 1 mps 763 mmHg 45%
    01:00 +15°C° 0 mm 1 mps 763 mmHg 44%
    02:00 +15°C° 0 mm 1 mps 763 mmHg 43%
    03:00 +15°C° 0 mm 1 mps 763 mmHg 43%
    04:00 +14°C° 0 mm 1 mps 763 mmHg 42%
    05:00 +14°C° 0 mm 1 mps 763 mmHg 41%
    06:00 +14°C° 0 mm 1 mps 763 mmHg 41%
    07:00 +14°C° 0 mm 1 mps 763 mmHg 40%
    08:00 +16°C° 0 mm 1 mps 764 mmHg 38%
    09:00 +18°C° 0 mm 1 mps 764 mmHg 36%
    10:00 +20°C° 0 mm 1 mps 765 mmHg 33%
    11:00 +21°C° 0 mm 1 mps 764 mmHg 32%
    12:00 +22°C° 0 mm 1 mps 764 mmHg 31%
    13:00 +23°C° 0 mm 1 mps 764 mmHg 30%
    14:00 +23°C° 0 mm 1 mps 764 mmHg 34%
    15:00 +21°C° 0 mm 2 mps 764 mmHg 39%
    16:00 +21°C° 0 mm 2 mps 764 mmHg 43%
    17:00 +20°C° 0 mm 1 mps 764 mmHg 49%
    18:00 +18°C° 0 mm 1 mps 765 mmHg 55%
    19:00 +16°C° 0 mm 1 mps 765 mmHg 60%
    20:00 +15°C° 0 mm 1 mps 765 mmHg 60%
    21:00 +15°C° 0 mm 1 mps 766 mmHg 59%
    22:00 +15°C° 0 mm 1 mps 766 mmHg 58%
    23:00 +15°C° 0 mm 1 mps 766 mmHg 57%

    24 November, Friday

    Time Temperature Precipitation Wind Pressure Humidity
    00:00 +15°C° 0 mm 1 mps 766 mmHg 55%
    01:00 +14°C° 0 mm 1 mps 765 mmHg 54%
    02:00 +14°C° 0 mm 1 mps 765 mmHg 54%
    03:00 +14°C° 0 mm 1 mps 765 mmHg 53%
    04:00 +14°C° 0 mm 1 mps 765 mmHg 53%
    05:00 +14°C° 0 mm 1 mps 765 mmHg 52%
    06:00 +14°C° 0 mm 1 mps 765 mmHg 52%
    07:00 +13°C° 0 mm 2 mps 766 mmHg 52%
    08:00 +15°C° 0 mm 1 mps 766 mmHg 48%
    09:00 +18°C° 0 mm 1 mps 766 mmHg 45%
    10:00 +20°C° 0 mm 1 mps 766 mmHg 42%
    11:00 +21°C° 0 mm 1 mps 766 mmHg 40%
    12:00 +22°C° 0 mm 1 mps 765 mmHg 37%
    13:00 +23°C° 0 mm 1 mps 765 mmHg 35%
    14:00 +23°C° 0 mm 2 mps 765 mmHg 39%
    15:00 +23°C° 0 mm 2 mps 764 mmHg 42%
    16:00 +21°C° 0 mm 3 mps 764 mmHg 46%
    17:00 +20°C° 0 mm 3 mps 764 mmHg 50%
    18:00 +18°C° 0 mm 3 mps 765 mmHg 55%
    19:00 +17°C° 0 mm 3 mps 765 mmHg 60%
    20:00 +16°C° 0 mm 3 mps 765 mmHg 60%
    21:00 +16°C° 0 mm 3 mps 765 mmHg 59%
    22:00 +16°C° 0 mm 3 mps 765 mmHg 58%
    23:00 +16°C° 0 mm 3 mps 765 mmHg 58%

    25 November, Saturday

    Time Temperature Precipitation Wind Pressure Humidity
    00:00 +16°C° 0 mm 3 mps 765 mmHg 57%
    01:00 +14°C° 0 mm 3 mps 765 mmHg 57%
    02:00 +14°C° 0 mm 3 mps 765 mmHg 58%
    03:00 +14°C° 0 mm 3 mps 764 mmHg 60%
    04:00 +14°C° 0 mm 3 mps 764 mmHg 61%
    05:00 +14°C° 0 mm 3 mps 764 mmHg 63%
    06:00 +14°C° 0 mm 3 mps 764 mmHg 64%
    07:00 +14°C° 0 mm 3 mps 764 mmHg 66%
    08:00 +16°C° 0 mm 3 mps 764 mmHg 62%
    09:00 +18°C° 0 mm 3 mps 764 mmHg 58%
    10:00 +20°C° 0 mm 3 mps 764 mmHg 54%
    11:00 +21°C° 0 mm 2 mps 764 mmHg 50%
    12:00 +23°C° 0 mm 2 mps 764 mmHg 46%
    13:00 +25°C° 0 mm 1 mps 763 mmHg 42%
    14:00 +25°C° 0 mm 1 mps 763 mmHg 43%
    15:00 +24°C° 0 mm 2 mps 763 mmHg 45%
    16:00 +24°C° 0 mm 2 mps 763 mmHg 47%
    17:00 +23°C° 0 mm 2 mps 763 mmHg 51%
    18:00 +20°C° 0 mm 2 mps 763 mmHg 55%
    19:00 +18°C° 0 mm 2 mps 763 mmHg 59%
    20:00 +18°C° 0 mm 2 mps 763 mmHg 59%
    21:00 +18°C° 0 mm 2 mps 764 mmHg 58%
    22:00 +17°C° 0 mm 2 mps 764 mmHg 58%
    23:00 +17°C° 0 mm 2 mps 764 mmHg 58%
    Show more